TimeCDT,TemperatureF,Dew PointF,Humidity,Sea Level PressureIn,VisibilityMPH,Wind Direction,Wind SpeedMPH,Gust SpeedMPH,PrecipitationIn,Events,Conditions,WindDirDegrees,DateUTC
12:53 AM,61.0,55.9,83,30.17,10.0,SSW,4.6,-,N/A,,Clear,210,2013-03-30 05:53:00
1:53 AM,57.9,55.0,90,30.15,10.0,SSE,4.6,-,N/A,,Clear,150,2013-03-30 06:53:00
2:53 AM,57.9,55.9,93,30.14,10.0,SSE,3.5,-,N/A,,Clear,160,2013-03-30 07:53:00
3:53 AM,55.9,55.0,97,30.13,10.0,SE,3.5,-,N/A,,Clear,130,2013-03-30 08:53:00
4:53 AM,55.0,54.0,96,30.11,10.0,SSE,4.6,-,N/A,,Clear,150,2013-03-30 09:53:00
5:53 AM,55.0,54.0,96,30.11,8.0,SSE,5.8,-,N/A,,Clear,150,2013-03-30 10:53:00
6:53 AM,55.9,55.0,97,30.12,7.0,Calm,Calm,-,N/A,,Clear,0,2013-03-30 11:53:00
7:53 AM,57.0,55.9,96,30.14,6.0,SSE,5.8,-,N/A,,Clear,150,2013-03-30 12:53:00
8:28 AM,59.0,57.2,94,30.14,7.0,SSE,5.8,-,N/A,,Partly Cloudy,150,2013-03-30 13:28:00
8:53 AM,60.1,57.0,90,30.17,8.0,South,5.8,-,0.00,Rain,Light Rain,190,2013-03-30 13:53:00
9:42 AM,60.8,57.2,88,30.17,3.0,Calm,Calm,-,0.02,Rain,Rain,0,2013-03-30 14:42:00
9:53 AM,60.1,57.9,93,30.19,2.0,WNW,6.9,-,0.07,Rain,Rain,290,2013-03-30 14:53:00
10:00 AM,60.8,59.0,94,30.16,1.0,South,5.8,-,0.05,Rain,Heavy Rain,180,2013-03-30 15:00:00
10:12 AM,60.8,59.0,94,30.15,2.0,South,6.9,-,0.11,Rain,Heavy Rain,170,2013-03-30 15:12:00
10:25 AM,60.8,59.0,94,30.14,3.0,SSE,6.9,-,0.13,Rain,Rain,160,2013-03-30 15:25:00
10:53 AM,62.1,62.1,100,30.12,6.0,SSE,11.5,-,0.15,Rain,Light Rain,150,2013-03-30 15:53:00
11:10 AM,64.4,62.6,94,30.11,7.0,SSE,8.1,-,0.00,,Scattered Clouds,160,2013-03-30 16:10:00
11:34 AM,66.2,62.6,88,30.10,8.0,SSE,10.4,-,0.01,,Mostly Cloudy,150,2013-03-30 16:34:00
11:53 AM,66.0,63.0,90,30.11,9.0,South,6.9,-,0.01,,Mostly Cloudy,180,2013-03-30 16:53:00
12:21 PM,69.8,64.4,83,30.09,10.0,South,11.5,18.4,N/A,,Mostly Cloudy,190,2013-03-30 17:21:00
12:53 PM,71.1,61.0,70,30.09,10.0,SSW,10.4,21.9,N/A,,Mostly Cloudy,200,2013-03-30 17:53:00
1:08 PM,73.4,60.8,65,30.07,10.0,South,15.0,19.6,N/A,,Mostly Cloudy,190,2013-03-30 18:08:00
1:53 PM,73.9,60.1,62,30.06,10.0,SSW,13.8,19.6,N/A,,Mostly Cloudy,210,2013-03-30 18:53:00
2:53 PM,73.0,59.0,61,30.03,10.0,South,10.4,-,N/A,,Overcast,190,2013-03-30 19:53:00
3:53 PM,77.0,59.0,54,30.01,10.0,SW,9.2,-,N/A,,Mostly Cloudy,220,2013-03-30 20:53:00
4:53 PM,75.0,57.0,53,30.01,10.0,SSW,11.5,-,N/A,,Mostly Cloudy,210,2013-03-30 21:53:00
5:53 PM,75.9,55.9,50,29.99,10.0,SSW,10.4,-,N/A,,Clear,200,2013-03-30 22:53:00
6:53 PM,73.0,55.9,55,29.98,10.0,South,17.3,21.9,N/A,,Clear,190,2013-03-30 23:53:00
7:53 PM,68.0,57.9,70,29.99,10.0,South,8.1,-,N/A,,Clear,180,2013-03-31 00:53:00
8:53 PM,66.9,57.9,73,30.01,10.0,South,5.8,-,N/A,,Clear,180,2013-03-31 01:53:00
9:53 PM,64.9,57.9,78,30.01,10.0,South,5.8,-,N/A,,Clear,170,2013-03-31 02:53:00
10:53 PM,64.0,59.0,84,30.03,8.0,South,6.9,-,N/A,,Clear,180,2013-03-31 03:53:00
11:53 PM,63.0,59.0,87,30.01,10.0,South,5.8,-,N/A,,Clear,180,2013-03-31 04:53:00